Temperature
22 23 23 23 23 23 23 23 23 23 23 22 23 23 24 22 21 21 21 21 20 20 19 19 18 18 17 17 17 17 17 16 16 16 16 16 15 15 15 15 15 15 15 15
22 22 23 23 22 22 23 22 23 23 23 22 23 23 24 23 22 22 22 21 21 20 19 18 18 18 18 17 17 17 17 16 16 16 16 15 15 15 15 15 15 15 15 15
22 23 22 22 22 22 22 22 22 22 22 22 22 23 23 23 22 21 21 21 21 20 20 19 18 18 18 17 17 17 17 16 16 16 16 15 15 15 15 15 15 15 15 15
22 22 22 22 22 22 22 22 22 22 22 22 22 22 23 23 23 22 21 21 21 20 20 19 18 18 18 18 17 17 17 16 16 16 15 15 15 15 15 15 15 15 15 15
22 22 22 22 22 22 22 22 22 22 22 22 22 22 24 23 22 23 23 21 20 20 20 19 18 18 18 18 17 17 17 16 16 16 16 15 15 15 15 15 15 15 15 15
22 22 22 22 22 22 22 22 21 21 22 21 22 22 23 23 23 23 23 22 21 20 19 19 18 18 18 18 17 17 17 16 16 16 15 15 15 15 15 15 15 15 15 15
22 22 22 22 22 21 22 22 21 21 21 22 22 22 22 24 23 23 23 22 21 20 19 18 18 18 18 18 18 17 17 17 16 16 15 15 15 15 15 15 15 15 15 15
21 21 22 22 22 22 22 22 21 21 21 22 22 22 23 23 22 22 21 21 20 19 19 18 18 18 18 18 18 17 17 17 16 16 16 15 15 15 15 15 15 15 15 15
22 22 22 22 22 22 22 22 22 22 21 21 22 23 23 23 23 22 21 21 20 19 19 18 18 18 18 18 18 18 17 17 16 16 16 15 15 15 15 15 15 15 15 15
22 22 21 21 21 21 22 22 21 21 20 21 21 22 22 22 22 22 22 21 20 19 19 18 18 17 17 18 18 17 17 17 16 16 16 16 15 15 15 15 15 15 15 15
22 22 21 21 21 21 21 21 21 21 21 21 21 22 23 22 22 22 22 21 20 19 19 18 18 18 17 18 18 17 17 17 16 16 16 16 16 15 15 15 15 15 15 15
22 22 21 21 22 22 22 22 22 21 21 21 21 22 23 22 22 22 21 20 19 19 18 18 18 18 18 18 17 17 17 17 17 16 16 16 16 15 15 15 15 15 15 15
21 21 21 21 21 21 21 21 21 21 21 21 20 22 23 22 22 21 20 20 19 18 18 18 17 17 17 17 17 17 17 17 17 16 16 16 16 16 16 15 15 15 15 15
21 21 21 21 21 21 21 21 21 21 21 21 21 22 23 22 22 21 21 20 19 18 18 18 17 17 17 17 17 17 17 17 17 16 16 16 16 16 16 16 15 15 15 15
21 21 21 21 21 21 21 21 21 21 21 21 22 22 22 23 22 21 21 20 19 18 18 18 17 17 17 17 17 17 17 17 17 16 16 16 16 16 16 16 15 15 15 15
20 21 21 21 21 21 21 21 21 21 21 21 21 22 23 22 22 21 21 20 19 19 18 18 18 17 17 17 17 17 17 17 17 16 16 16 16 16 16 15 15 15 15 15
20 20 20 20 21 20 20 21 21 21 21 21 21 22 22 22 21 21 21 20 19 19 18 18 18 18 18 18 17 17 17 17 17 16 16 16 16 16 16 16 15 15 15 15
19 20 20 20 20 19 22 22 22 21 21 21 21 22 22 21 20 20 20 19 19 19 18 18 18 18 18 18 17 17 17 17 17 16 16 16 16 16 16 16 16 15 15 15
19 19 19 19 19 20 21 21 21 21 21 22 21 21 21 20 20 20 19 19 19 19 19 18 18 18 18 18 17 17 17 17 17 17 16 16 16 16 16 16 16 15 15 15
17 18 18 18 18 19 21 22 21 21 21 22 21 21 21 20 21 22 19 18 18 18 18 18 18 18 18 18 17 17 17 17 17 17 17 16 16 16 16 16 16 15 15 15
17 17 17 18 18 20 21 20 20 20 21 21 20 20 20 20 21 20 19 18 18 18 18 18 18 18 18 18 17 17 17 17 17 17 17 16 16 16 16 16 15 15 15 15
18 17 18 18 18 19 20 20 21 21 21 20 20 20 19 19 19 18 18 18 18 18 18 18 18 18 18 18 17 17 17 17 17 17 17 16 16 16 16 15 15 15 15 15
18 19 19 19 20 20 19 20 19 19 20 20 19 19 18 18 18 18 18 17 17 17 17 17 17 17 17 17 17 17 17 17 17 17 16 16 16 16 16 15 15 15 15 14
18 17 18 19 19 19 18 18 18 18 18 19 18 18 18 18 18 17 17 17 17 17 17 17 17 17 17 17 17 17 17 17 17 16 16 16 15 15 15 15 15 14 14 14
17 17 18 18 19 18 18 18 17 17 17 18 18 17 17 17 17 17 17 17 17 17 17 17 17 17 17 17 17 17 17 16 16 16 16 15 15 15 15 15 14 14 14 14
17 17 18 18 19 19 18 17 17 17 17 17 17 17 17 17 17 17 17 17 16 16 16 16 16 16 16 16 16 16 16 16 16 16 15 15 15 15 15 14 14 14 14 14
Wind_Speed
4 6 6 6 6 4 4 5 5 4 2 5 8 9 7 8 10 11 11 12 12 11 10 9 8 8 8 7 6 6 7 6 5 4 3 3 3 3 3 3 4 3 3 3
6 7 5 4 4 5 6 6 5 3 2 5 7 10 8 8 11 12 12 13 13 12 11 10 10 10 10 9 8 7 6 6 5 3 3 3 3 3 3 3 4 3 3 3
7 2 4 6 7 7 7 7 6 5 3 5 7 7 7 7 9 10 11 12 13 13 13 13 12 11 10 10 10 7 7 7 6 5 4 4 4 3 3 3 3 3 3 3
6 4 5 7 7 7 6 5 6 6 6 4 3 5 4 5 7 10 12 13 13 13 13 12 12 12 11 11 10 9 8 7 6 6 5 5 3 3 3 2 3 3 3 3
5 6 7 7 6 7 3 2 5 5 7 7 6 6 4 3 6 8 10 12 14 14 14 13 13 12 11 11 10 9 9 8 7 6 6 5 4 3 3 3 3 3 3 3
5 4 5 4 3 5 4 4 4 4 6 7 5 6 4 3 5 5 6 10 12 13 14 13 12 12 11 10 10 9 10 9 8 7 7 6 5 5 5 4 3 3 3 3
7 7 5 4 5 6 6 5 3 4 4 4 1 5 4 2 3 4 4 6 9 12 13 14 14 14 13 12 12 11 11 10 9 8 7 6 6 5 5 4 4 3 3 3
8 7 8 7 7 6 8 7 4 3 3 3 3 5 2 1 2 2 2 4 7 11 12 14 15 14 14 13 13 12 12 11 10 9 7 6 6 4 3 3 3 3 3 3
7 5 5 6 6 7 7 8 5 5 5 5 4 3 3 1 1 1 1 3 6 10 12 13 14 15 14 14 13 13 12 11 11 10 8 7 6 5 4 4 4 3 4 3
5 5 5 5 5 4 5 5 5 5 4 5 4 5 3 1 2 1 1 3 5 8 11 12 13 14 13 13 13 12 12 12 11 10 8 6 6 6 4 4 4 5 5 4
7 6 6 7 9 9 7 8 7 6 5 4 4 1 0 2 2 2 1 2 5 8 9 11 11 13 13 12 12 12 12 12 11 10 9 8 7 6 6 5 5 4 5 5
7 6 6 8 5 5 9 9 9 7 5 6 5 3 2 2 3 2 1 2 4 6 8 9 11 12 12 13 13 13 12 12 11 11 10 9 8 7 7 6 6 5 5 5
8 6 6 6 6 7 9 9 10 9 7 7 7 3 2 2 2 2 2 3 4 6 7 9 10 11 12 13 13 13 13 12 12 11 10 9 8 8 8 7 6 6 5 5
8 8 9 8 4 6 9 10 11 12 9 9 10 9 5 4 3 2 3 3 4 6 7 9 10 11 12 13 13 13 13 12 12 12 11 10 10 9 8 7 7 6 6 5
8 10 10 9 6 7 10 11 13 15 14 12 11 10 9 7 5 4 4 4 5 6 7 8 10 11 12 12 13 13 13 13 13 12 12 10 9 9 8 7 7 6 6 5
10 10 10 11 8 8 11 12 14 15 14 14 13 12 8 7 6 6 6 6 7 7 7 8 9 11 12 13 13 13 13 13 13 13 12 11 10 10 9 8 8 7 6 5
9 10 10 10 8 9 12 12 13 13 12 11 12 10 6 5 6 6 6 7 8 8 8 9 10 11 12 13 14 15 14 14 14 13 12 11 11 10 10 9 8 7 6 6
10 11 8 8 8 11 7 5 8 10 11 11 11 9 7 7 6 7 6 7 7 8 8 9 10 10 11 12 13 13 13 14 14 13 12 12 11 11 10 9 9 8 7 6
10 10 8 8 10 10 6 6 8 10 10 9 10 8 6 5 4 5 5 6 7 7 7 7 8 10 11 12 12 14 14 14 14 14 13 13 13 12 11 10 9 8 7 6
10 11 9 9 10 9 6 4 5 8 9 6 7 7 5 5 6 4 2 3 5 5 5 6 7 8 10 11 12 14 15 15 15 14 13 13 12 12 11 10 9 8 7 6
12 11 14 12 11 8 4 3 6 8 3 2 5 6 6 7 5 2 1 2 3 4 4 6 7 8 9 11 13 14 14 14 13 12 12 12 12 11 11 9 8 8 7 7
13 11 12 12 11 8 5 6 6 3 1 2 4 5 5 5 3 2 2 2 2 3 5 6 7 8 9 11 13 13 13 12 12 12 12 12 11 10 9 9 8 8 8 7
12 11 8 9 8 3 6 6 4 3 3 3 3 4 4 3 3 3 2 2 3 4 5 6 7 8 9 10 11 12 11 11 12 12 12 11 11 10 9 10 9 8 8 7
8 7 8 8 8 7 6 5 4 5 5 4 4 4 4 4 3 3 2 2 2 3 5 6 8 9 9 9 9 9 9 11 12 13 12 11 11 10 9 8 8 7 7 7
8 8 9 11 8 7 8 6 4 4 4 4 3 4 4 4 4 3 3 2 3 4 5 6 7 7 8 8 8 8 9 11 12 12 11 11 10 10 9 7 5 6 6 6
9 9 11 9 7 7 7 5 4 5 5 5 4 3 3 3 4 3 3 3 3 4 5 6 7 7 8 8 8 8 9 11 12 11 11 9 9 9 8 8 6 5 3 5
Wind_Direction
189 208 207 205 222 245 240 245 257 270 265 255 257 260 250 212 215 216 210 205 203 199 191 185 185 181 177 177 175 162 157 157 155 153 152 142 127 119 107 87 82 87 89 95
195 215 215 208 205 218 229 244 260 260 246 263 274 271 258 226 222 220 216 209 206 201 193 188 189 188 185 181 182 175 166 165 168 166 155 146 135 122 106 106 95 84 86 86
215 179 182 200 206 220 233 244 260 271 277 246 280 266 237 225 222 222 223 219 210 203 198 192 191 190 188 185 186 179 171 170 170 164 153 150 140 143 136 122 101 78 76 78
219 206 201 212 218 229 239 240 250 257 265 265 269 286 247 225 217 218 218 215 213 205 202 194 190 187 189 185 182 179 176 174 169 170 171 167 163 156 142 134 123 115 96 86
202 203 212 224 224 224 242 215 233 251 266 270 248 268 268 211 238 231 218 213 212 207 202 197 192 187 185 178 178 177 173 172 171 177 171 177 172 159 147 144 137 130 109 99
222 209 227 225 207 206 179 186 197 231 255 259 256 255 274 237 259 256 226 213 208 204 200 197 190 184 179 175 175 173 173 174 171 178 180 183 174 170 161 161 152 148 133 122
210 206 200 198 186 177 203 223 232 226 228 252 228 251 266 305 285 271 253 218 201 197 195 192 187 186 181 178 177 175 176 175 176 181 186 183 183 180 174 165 161 161 148 135
207 207 198 203 213 205 208 226 245 264 267 275 221 250 271 340 294 275 257 218 194 191 192 192 189 188 185 182 181 181 181 178 177 183 185 184 178 186 174 172 166 164 153 140
209 202 173 199 215 216 209 223 252 272 275 270 249 258 261 217 267 278 230 187 188 189 190 190 188 189 187 184 183 184 182 180 180 184 184 181 180 181 176 174 170 159 148 141
223 215 183 175 180 205 238 205 209 237 264 264 266 261 258 219 283 303 224 195 185 183 187 188 186 188 188 185 183 183 183 182 181 181 178 177 179 178 176 170 167 159 151 147
220 217 186 189 210 204 189 201 217 232 250 268 277 272 61 269 284 292 267 198 184 181 183 184 183 183 182 181 180 182 184 183 180 179 177 176 176 178 174 172 164 164 157 160
207 227 217 210 208 231 218 217 216 229 238 246 269 273 111 275 284 280 249 180 177 177 178 180 180 179 179 180 182 185 184 182 180 178 177 178 174 179 178 172 170 170 161 157
189 218 217 200 199 204 217 219 222 233 244 239 247 261 115 275 267 232 207 177 172 173 173 175 178 181 182 182 183 184 184 181 178 177 178 178 177 180 179 172 169 172 164 162
203 223 229 234 246 212 222 219 218 224 237 244 246 265 273 272 274 232 208 191 177 176 177 178 181 184 185 185 186 184 184 180 177 177 182 181 180 181 180 173 172 172 167 170
210 230 233 247 256 234 236 230 221 227 240 252 261 266 272 273 272 252 224 200 194 190 188 187 187 187 186 185 187 184 182 180 178 181 185 184 181 179 176 170 170 172 170 171
210 230 230 236 236 241 244 236 228 232 241 250 262 267 274 272 258 238 218 212 214 209 203 196 193 190 189 187 187 184 182 182 181 183 185 180 180 176 175 175 172 169 168 168
205 221 228 237 234 249 242 233 227 228 234 241 249 258 262 261 252 242 223 216 220 216 208 201 196 196 192 190 189 186 184 181 183 184 183 179 180 177 177 174 171 169 169 166
216 219 225 237 232 238 241 215 225 227 232 236 247 259 252 255 258 248 230 216 224 218 210 207 202 199 196 191 188 184 181 182 183 184 183 181 180 178 176 174 173 172 170 164
224 219 221 226 234 247 238 219 216 224 235 231 237 249 250 254 239 223 218 224 224 218 208 205 204 198 192 188 183 179 181 182 183 184 183 182 181 178 177 177 178 175 170 167
208 218 224 224 230 237 224 186 206 224 233 220 224 232 227 219 230 224 219 229 226 216 203 196 191 186 185 181 177 177 180 182 185 184 182 180 179 177 177 179 178 173 170 169
190 203 216 225 233 242 231 179 185 215 230 190 216 223 215 220 245 251 229 223 214 206 196 183 179 178 177 173 173 177 179 184 182 177 175 175 176 176 174 173 172 171 169 166
199 203 211 217 225 229 166 172 200 243 341 200 214 219 222 232 249 247 227 210 195 183 181 177 174 173 169 171 176 178 182 180 172 170 172 173 175 174 168 166 169 171 170 166
211 211 213 217 225 201 175 201 227 273 262 248 230 222 215 222 229 234 224 197 180 172 174 173 171 166 165 170 178 181 180 172 169 168 170 172 172 170 166 167 169 171 175 177
208 209 218 224 225 217 215 217 236 247 257 257 238 224 219 221 222 221 213 189 177 171 166 165 166 167 166 168 175 179 169 168 169 169 169 169 169 165 165 167 172 174 178 181
210 198 217 228 228 220 222 225 242 249 255 243 231 228 221 212 212 204 193 181 179 170 163 162 164 166 166 165 166 166 164 168 168 168 168 168 167 164 163 163 167 180 180 187
208 210 213 223 215 223 224 226 240 243 242 236 227 228 220 209 204 199 187 175 171 167 160 159 161 163 164 163 160 160 163 168 168 167 167 168 167 164 163 159 146 81 89 108
Height
1527 1527 1525 1524 1525 1525 1526 1528 1529 1527 1527 1528 1526 1525 1524 1528 1531 1532 1533 1535 1538 1540 1543 1546 1547 1549 1551 1553 1555 1557 1558 1559 1560 1561 1563 1563 1564 1564 1564 1565 1565 1565 1565 1565
1526 1525 1523 1525 1526 1527 1527 1529 1528 1526 1526 1527 1525 1523 1521 1523 1526 1528 1530 1532 1535 1538 1541 1544 1546 1548 1550 1552 1554 1556 1558 1559 1560 1561 1563 1563 1564 1565 1565 1565 1566 1566 1566 1566
1522 1522 1524 1525 1526 1527 1526 1527 1527 1528 1526 1525 1526 1522 1518 1520 1523 1526 1528 1529 1532 1535 1538 1541 1544 1546 1549 1551 1553 1555 1557 1558 1560 1561 1562 1563 1564 1565 1566 1566 1566 1566 1566 1566
1521 1522 1524 1524 1524 1525 1527 1524 1526 1528 1528 1525 1527 1527 1516 1515 1518 1521 1524 1526 1528 1532 1535 1538 1541 1544 1546 1549 1552 1554 1556 1558 1560 1561 1562 1564 1565 1566 1566 1567 1567 1567 1567 1567
1520 1521 1522 1523 1522 1523 1524 1525 1526 1526 1526 1526 1523 1526 1515 1513 1516 1515 1518 1521 1524 1528 1531 1535 1538 1541 1544 1547 1550 1552 1555 1557 1559 1560 1562 1563 1565 1566 1566 1566 1567 1567 1567 1567
1518 1520 1521 1520 1522 1523 1525 1526 1526 1526 1525 1530 1522 1524 1519 1511 1512 1511 1513 1517 1520 1524 1528 1532 1536 1539 1542 1545 1548 1551 1553 1556 1558 1560 1561 1563 1564 1565 1566 1567 1567 1568 1568 1568
1519 1518 1520 1521 1522 1524 1524 1526 1531 1532 1532 1527 1520 1523 1517 1508 1509 1510 1511 1514 1517 1521 1525 1528 1532 1536 1539 1543 1546 1549 1552 1554 1557 1559 1561 1563 1564 1566 1566 1567 1567 1568 1568 1568
1519 1520 1516 1517 1517 1519 1520 1521 1530 1536 1532 1524 1521 1520 1510 1508 1510 1511 1511 1512 1515 1518 1522 1525 1529 1533 1536 1540 1544 1547 1550 1553 1555 1558 1560 1562 1564 1565 1566 1566 1567 1568 1568 1569
1513 1516 1514 1515 1516 1516 1520 1519 1518 1524 1524 1527 1517 1512 1507 1507 1508 1509 1510 1511 1513 1516 1519 1523 1527 1530 1534 1538 1542 1545 1548 1552 1554 1557 1559 1561 1563 1564 1565 1566 1567 1568 1568 1569
1507 1513 1513 1516 1517 1518 1516 1516 1522 1525 1530 1529 1521 1516 1511 1507 1507 1507 1508 1510 1512 1514 1517 1521 1524 1528 1532 1536 1540 1543 1547 1550 1553 1556 1558 1560 1562 1564 1565 1566 1567 1568 1568 1569
1507 1511 1514 1515 1514 1514 1518 1519 1518 1519 1521 1527 1526 1517 1504 1505 1505 1506 1507 1508 1510 1513 1515 1519 1522 1526 1530 1534 1537 1541 1545 1549 1552 1554 1557 1559 1561 1563 1564 1566 1567 1568 1569 1570
1506 1507 1510 1510 1509 1509 1510 1511 1514 1522 1521 1520 1522 1516 1502 1504 1505 1506 1506 1508 1510 1512 1514 1517 1520 1524 1528 1532 1536 1539 1543 1547 1550 1553 1555 1558 1560 1562 1564 1565 1567 1568 1569 1570
1506 1507 1512 1514 1514 1512 1510 1509 1510 1512 1514 1517 1521 1513 1501 1503 1504 1505 1506 1507 1509 1511 1513 1516 1519 1522 1525 1529 1533 1537 1541 1544 1548 1551 1554 1557 1559 1561 1563 1565 1566 1567 1569 1570
1504 1502 1506 1511 1506 1505 1507 1508 1509 1510 1513 1512 1510 1506 1500 1500 1502 1504 1505 1507 1508 1510 1512 1514 1517 1520 1523 1527 1531 1535 1538 1542 1545 1549 1552 1555 1557 1560 1562 1564 1566 1567 1568 1570
1502 1501 1500 1499 1500 1501 1503 1504 1506 1507 1504 1506 1502 1501 1498 1498 1500 1502 1503 1505 1507 1508 1510 1512 1515 1518 1521 1524 1528 1532 1536 1539 1543 1546 1550 1553 1556 1558 1561 1563 1565 1567 1568 1569
1499 1499 1499 1501 1499 1499 1500 1498 1500 1501 1500 1500 1500 1499 1495 1497 1499 1500 1501 1503 1504 1506 1508 1510 1512 1515 1518 1521 1525 1529 1533 1536 1540 1544 1548 1551 1554 1556 1559 1562 1564 1566 1567 1569
1496 1497 1500 1500 1497 1499 1500 1492 1493 1495 1495 1496 1498 1495 1494 1496 1497 1497 1499 1501 1502 1503 1505 1507 1509 1512 1515 1518 1522 1526 1530 1534 1537 1541 1545 1548 1552 1555 1558 1560 1562 1564 1566 1568
1494 1495 1497 1499 1500 1507 1489 1484 1487 1490 1491 1491 1492 1492 1493 1494 1495 1496 1497 1498 1499 1500 1502 1504 1506 1508 1512 1515 1519 1523 1526 1531 1535 1539 1542 1546 1549 1552 1555 1558 1560 1563 1565 1566
1493 1494 1497 1498 1500 1493 1486 1484 1485 1487 1488 1487 1488 1489 1491 1492 1493 1493 1494 1495 1496 1498 1499 1501 1503 1505 1508 1512 1515 1519 1523 1527 1532 1535 1539 1543 1546 1550 1553 1556 1558 1561 1563 1565
1493 1492 1495 1495 1499 1497 1483 1481 1483 1486 1486 1484 1485 1486 1488 1490 1489 1489 1491 1492 1493 1495 1496 1498 1500 1502 1505 1509 1512 1516 1520 1524 1528 1532 1536 1540 1544 1547 1550 1553 1556 1559 1561 1563
1491 1492 1492 1492 1492 1483 1478 1480 1483 1489 1483 1482 1483 1484 1486 1487 1486 1488 1489 1490 1491 1492 1493 1495 1497 1500 1503 1506 1510 1513 1517 1521 1525 1530 1533 1537 1541 1544 1548 1551 1554 1556 1559 1561
1480 1484 1486 1487 1490 1486 1478 1480 1480 1479 1479 1480 1482 1483 1484 1485 1486 1486 1487 1488 1488 1489 1491 1493 1495 1498 1501 1504 1507 1511 1515 1519 1523 1527 1530 1534 1538 1542 1545 1548 1551 1554 1556 1558
1472 1474 1474 1476 1476 1474 1476 1477 1478 1479 1479 1480 1480 1481 1482 1483 1484 1485 1485 1486 1486 1487 1489 1491 1493 1495 1498 1502 1505 1509 1513 1517 1520 1524 1528 1532 1535 1539 1542 1545 1548 1551 1553 1556
1469 1472 1472 1472 1471 1473 1475 1476 1477 1478 1478 1479 1479 1480 1481 1481 1482 1483 1483 1484 1485 1486 1487 1489 1491 1494 1497 1499 1503 1507 1510 1514 1518 1521 1525 1529 1532 1536 1539 1543 1546 1548 1550 1553
1466 1470 1469 1469 1469 1471 1472 1474 1475 1476 1476 1477 1477 1478 1479 1479 1480 1480 1481 1482 1483 1484 1486 1487 1490 1492 1495 1498 1501 1505 1508 1512 1515 1519 1522 1526 1530 1533 1537 1540 1543 1545 1548 1550
1465 1465 1466 1465 1466 1468 1469 1471 1473 1473 1474 1475 1475 1476 1476 1477 1477 1478 1479 1480 1482 1483 1485 1486 1489 1491 1494 1497 1500 1503 1506 1509 1513 1516 1520 1523 1527 1530 1534 1537 1540 1543 1545 1548